Location: New Plymouth
(39.0670°S, 174.0830°E)
Time: 13:49:44
(UTC+12:00)

Tiangong 2 - Visible Passes

Search period start: 18 June 2019 00:00
Search period end: 28 June 2019 00:00
Orbit: 376 x 389 km, 42.8° (Epoch: 17 June)

Date Brightness Start Highest point End Pass type
(mag) Time Alt. Az. Time Alt. Az. Time Alt. Az.
18 Jun 3.1 19:11:00 10° NW 19:12:36 25° NNW 19:12:36 25° NNW visible
19 Jun 2.7 18:11:22 10° NNW 18:13:58 23° NNE 18:15:22 17° ENE visible
19 Jun 4.6 19:47:16 10° WNW 19:47:33 12° WNW 19:47:33 12° WNW visible
20 Jun 1.0 18:47:05 10° WNW 18:50:15 71° NNE 18:50:16 71° NNE visible
21 Jun 1.9 17:47:07 10° NW 17:50:07 40° NNE 17:52:56 11° E visible
21 Jun 3.5 19:23:39 10° W 19:25:06 23° W 19:25:06 23° W visible
22 Jun 1.1 18:23:20 10° WNW 18:26:31 75° SSW 18:27:44 34° ESE visible
23 Jun 2.2 19:00:04 10° W 19:02:30 37° SW 19:02:30 37° SW visible
24 Jun 1.5 17:59:40 10° W 18:02:49 53° SSW 18:05:06 17° ESE visible
24 Jun 4.2 19:36:46 10° WSW 19:37:16 13° WSW 19:37:16 13° WSW visible
25 Jun 1.8 18:36:26 10° WSW 18:39:29 40° S 18:39:52 38° SSE visible
26 Jun 1.7 17:36:03 10° W 17:39:08 43° S 17:42:12 10° ESE visible
26 Jun 3.0 19:13:01 10° WSW 19:14:40 26° SW 19:14:40 26° SW visible
27 Jun 1.7 18:12:44 10° WSW 18:15:48 41° S 18:17:20 23° ESE visible
27 Jun 4.6 19:49:28 10° WSW 19:49:31 10° WSW 19:49:31 10° WSW visible
